Regional Weather Roundup
Issued by NWS

Home | Current Version | Previous Version | Graphics & Text | Print | Product List | Glossary On
Versions: 1 2 3 4 5 6 7 8 9 10 11 12 13 14 15 16 17 18 19 20 21 22 23 24 25 26 27 28 29 30 31 32 33 34 35 36 37 38 39 40 41 42 43 44 45 46 47 48 49 50
355
ASUS45 KTFX 301110
RWRMT
MONTANA REGIONAL WEATHER ROUNDUP
NATIONAL WEATHER SERVICE GREAT FALLS MT
500 AM MDT SAT APR 30 2016

NOTE: "FAIR" INDICATES FEW OR NO CLOUDS BELOW 12000 FEET WITH NO
SIGNIFICANT WEATHER AND/OR OBSTRUCTIONS TO VISIBILITY.

MTZ001>007-043-301200-
WEST OF THE DIVIDE

CITY           SKY/WX    TMP DP  RH WIND       PRES   REMARKS
KALISPELL      CLOUDY    37  36  96 CALM      30.11R
MISSOULA       LGT RAIN  42  37  82 NW5       30.11R
BUTTE          CLOUDY    36  34  92 NW5       30.05R
MULLAN PASS    MOCLDY    31  30  96 CALM      30.08R
ANACONDA         N/A     37  36  93 CALM      30.06R
DEER LODGE       N/A     39  36  87 CALM      30.08R
EUREKA           N/A     39  37  93 CALM        N/A
HAMILTON         N/A     41  37  87 CALM      30.10R
LIBBY            N/A     39  37  93 CALM      30.13R
THOMPSON FALLS   N/A     42  39  89 CALM      30.15R
$$

MTZ008-052>055-301200-
SOUTHWEST MONTANA

CITY           SKY/WX    TMP DP  RH WIND       PRES   REMARKS
BOZEMAN        PTCLDY    36  31  82 E3        30.05R
DILLON         CLOUDY    39  32  76 NE6       30.01R
ENNIS          CLOUDY    37  32  81 NE3       30.06R
THREE FORKS      N/A     38  38 100 CALM      30.03R
TWIN BRIDGES     N/A     39  28  65 N13       29.99R WCI  31
$$

MTZ009-010-012-014-046-048-049-054-301200-
EAST SLOPES AND CENTRAL MONTANA

CITY           SKY/WX    TMP DP  RH WIND       PRES   REMARKS
CUT BANK       MOCLDY    32  31  96 NW7       30.13R WCI  26
GREAT FALLS    CLOUDY    36  34  92 W5        30.08R
HELENA         CLOUDY    43  34  70 W6        30.06R
CHOTEAU          N/A     36  34  93 NW8       30.11R WCI  29
CONRAD           N/A     37  37 100 NE3       30.12R
$$

MTZ011-013-016-021-045-047-050-051-301200-
NORTH CENTRAL MONTANA

CITY           SKY/WX    TMP DP  RH WIND       PRES   REMARKS
HAVRE          CLOUDY    41  37  86 E14       30.13R
LEWISTOWN      CLOUDY    40  35  83 E10       30.10R
N BAR RANCH    CLOUDY    37  36  93 CALM      30.12R
CHINOOK          N/A     39  39 100 CALM      30.15R
$$

MTZ017>020-022>027-061-062-301200-
NORTHEAST MONTANA

CITY           SKY/WX    TMP DP  RH WIND       PRES   REMARKS
GLASGOW        CLOUDY    43  32  65 E12       30.16R
JORDAN           N/A     40  36  86 E3        30.14R
SIDNEY         CLOUDY    39  28  65 N6        30.20R
WOLF POINT     CLEAR     38  31  76 E7        30.19R
PLENTYWOOD       N/A     37  27  65 NE8       30.23R WCI  31
POPLAR           N/A     39  28  65 N5        30.21R
SCOBEY           N/A     37  20  50 CALM      30.18R
$$

MTZ028>42-056>058-301200-
SOUTHCENTRAL AND SOUTHEAST MONTANA

CITY           SKY/WX    TMP DP  RH WIND       PRES   REMARKS
BAKER          CLOUDY    40  33  76 NE6       30.13R
BILLINGS       CLOUDY    41  36  82 NE7       30.07R
LIVINGSTON     CLOUDY    39  32  76 E9        30.05R
MILES CITY     CLOUDY    44  37  76 NE7       30.12R
EKALAKA          N/A     37  31  79 SE2       30.07R
FORSYTH          N/A     43  39  87 E5        30.11R
LAUREL           N/A     41  30  65 N2        30.05R
ROUNDUP          N/A     40  34  79 CALM      30.01R
$$

REGIONAL REPORTS...DAKOTAS

CITY           SKY/WX    TMP DP  RH WIND       PRES   REMARKS
WILLISTON      CLEAR     38  29  70 VRB3      30.22R
MINOT          CLEAR     39  26  59 CALM      30.24R
DICKINSON      PTCLDY    34  27  75 E9        30.13R WCI  27
BEACH          CLOUDY    32  32 100 E8        30.19R WCI  25
CROSBY           N/A     32  27  80 N5        30.28R
TIOGA            N/A     34  32  93 E5        30.28R
WATFORD CITY     N/A     32  28  86 E3        30.21R
BISMARCK       CLEAR     39  32  76 NE10      30.16R
GRAND FORKS    CLEAR     37  30  75 E9        30.24R WCI  30
FARGO          CLEAR     41  30  65 E9        30.19R
BUFFALO SD       N/A     40  34  79 NE7       30.03R
RAPID CITY     CLOUDY    39  37  92 N14       30.03R WCI  31
$$

REGIONAL REPORTS...WYOMING/IDAHO/WASHINGTON

CITY           SKY/WX    TMP DP  RH WIND       PRES   REMARKS
GILLETTE       CLOUDY    37  34  89 NE14      30.03R WCI  28
SHERIDAN       CLOUDY    40  36  86 CALM      30.07R
BUFFALO WY       N/A    N/A N/A N/A MISG      30.05R
CODY           CLOUDY    37  34  87 NE9       30.02R WCI  31
YELLOWSTONE LA   N/A     29  26  89 CALM      30.01R
IDAHO FALLS    CLEAR     33  31  92 N6        29.95R WCI  28
SALMON         CLOUDY    37  34  87 CALM      30.03R
BOISE          CLEAR     44  36  73 NW14      29.99R
SPOKANE        CLOUDY    47  44  90 E6        30.11R
$$

REGIONAL REPORTS...ALBERTA

CITY           SKY/WX    TMP DP  RH WIND       PRES   REMARKS
EDMONTON       PTCLDY    39  30  70 S3        30.14R
CALGARY        CLOUDY    43  32  65 SE8       30.13R
LETHBRIDGE     PTCLDY    36  34  93 S8        30.12R WCI  29
MEDICINE HAT   CLOUDY    46  39  76 NE5       30.15R
WATERTON GATE    N/A     28  27  93 SW6         N/A  WCI  22
MILK RIVER       N/A     34  34 100 NW1         N/A
$$

REGIONAL REPORTS...SASKATCHEWAN

CITY           SKY/WX    TMP DP  RH WIND       PRES   REMARKS
SWIFT CURRENT  MOCLDY    36  30  80 SE8       30.20R WCI  29
REGINA         CLEAR     37  23  56 SE12      30.28R WCI  30
SASKATOON      CLEAR     39  27  60 SE12      30.27R WCI  32
CYPRESS HILLS    N/A     37  34  87 SE6         N/A
VAL MARIE        N/A     43  34  70 NE6         N/A
ASSINIBOIA       N/A     45  37  76 S3          N/A
$$




USA.gov is the U.S. government's official web portal to all federal, state and local government web resources and services.